Погода в Гой-Чу

Россия / Чеченская Республика     43°03′38″N   45°36′22″E
темп.,
°C
ветер,
м/с
пор.,
м/с
влажн.,
%
обл.,
%
осадки,
мм/ч
давл.,
гПа
погр.,
м
20 января, ср
ср2000:00−8юз118173 0.0 102367
03:00−8юз118987 0.1 102379
06:00−8юз1187100 0.3 1022110
09:00−6зюз016464 0.3 1023158
12:00−4с226836 0.0 1022530
15:00−5с228159 0.1 1022494
18:00−7ссз1189100 0.3 1025127
21:00−7зсз1194100 0.6 1025100
21 января, чт
чт2100:00−7з1193100 1.1 1027129
03:00−9ююз228198 1.2 102837
06:00−9ююз226212 0.0 103043
09:00−6юз11566 0.0 1031105
12:00−2ссз12520 0.0 1031620
15:00−2с11590 0.0 1030548
18:00−6ююз22700 0.0 103431
21:00−5ююз33550 0.0 103434
22 января, пт
пт2200:00−5ююз33480 0.0 103543
03:00−5ююз33430 0.0 103431
06:00−5ююз33400 0.0 103329
09:00−1ююз22420 0.0 103351
12:00+3св11440 0.0 1031290
15:00+3св12560 0.0 1029314
18:00−2ююз22640 0.0 103121
21:00−2ююз22570 0.0 103121
23 января, сб
сб2300:00−2ююз22490 0.0 103022
03:00−2юз22450 0.0 102921
06:00−3юз22430 0.0 102921
09:000зюз11470 0.0 102939
12:00+3ссв11570 0.0 1026202
15:00+2ссв11620 0.0 1025194
18:00−2ююз11700 0.0 102621
21:00−2юз12570 0.0 102621
24 января, вс
вс2400:00−1юз22490 0.0 102523
03:00−2юз22470 0.0 102422
06:00−2юз22440 0.0 102422
09:00+1ююз11450 0.0 102437
12:00+5св11560 0.0 1022163
15:00+4св11620 0.0 1021144
18:00+1ююз11630 0.0 102222
21:00+1ююз22520 0.0 102125